Lebanon, NH

1:52 AM EDT on September 22, 2017 (GMT -0400)
Lebanon Municipal

Weather History for KLEB - January, 2013

Change the Weather History Date:

Tuesday, January 8, 2013

  Actual Average Record
Temperature  
Mean Temperature 21 °F -  
Max Temperature 39 °F 26 °F 52 °F (1930)
Min Temperature 3 °F 8 °F -24 °F (1942)
Degree Days  
Heating Degree Days 44    
Moisture  
Dew Point 11 °F    
Average Humidity 74    
Maximum Humidity 88    
Minimum Humidity 45    
Precipitation  
Precipitation 0.00 in - - ()
Sea Level Pressure  
Sea Level Pressure 30.31 in    
Wind  
Wind Speed 1 mph (NE)    
Max Wind Speed 5 mph    
Max Gust Speed -    
Visibility 9 miles    
Events      
Averages and records for this station are not official NWS values.
T = Trace of Precipitation, MM = Missing Value Source: NWS Daily Summary

Daily Weather History Graph

Daily Weather History Graph

Search for Another Location

Airport or City:

Trip Planner

Search our weather history database for the weather conditions in past years. The results will help you decide how hot, cold, wet, or windy it might be!

Date:

Astronomy

Jan. 08, 2013 Rise Set
Actual Time 7:22 AM EST 4:30 PM EST
Civil Twilight 6:49 AM EST 5:02 PM EST
Nautical Twilight 6:13 AM EST 5:38 PM EST
Astronomical Twilight 5:39 AM EST 6:13 PM EST
Moon 3:51 AM EST (1/8) 1:30 PM EST (1/8)
Length of Visible Light 10h 12m
Length of Day
9h 08m
Waning Crescent, 14% of the Moon is Illuminated
Jan 8
Waning Crescent
Jan 11
New
Jan 18
First Quarter
Jan 26
Full
Feb 3
Last Quarter

Hourly Weather History & Observations

Time (EST) Temp. Windchill Dew Point Humidity Pressure Visibility Wind Dir Wind Speed Gust Speed Precip Events Conditions
12:53 AM 3.0 °F - -2.0 °F 80% 30.32 in 10.0 mi Calm Calm - N/A   Clear
1:53 AM 3.0 °F - -0.9 °F 84% 30.31 in 9.0 mi Calm Calm - N/A   Clear
2:53 AM 5.0 °F - -0.0 °F 80% 30.30 in 10.0 mi Calm Calm - N/A   Clear
3:53 AM 6.1 °F - -0.0 °F 76% 30.29 in 10.0 mi Calm Calm - N/A   Clear
4:53 AM 6.1 °F -0.9 °F 1.0 °F 80% 30.28 in 10.0 mi ENE 3.5 mph - N/A   Clear
5:53 AM 5.0 °F -2.1 °F -0.0 °F 80% 30.28 in 9.0 mi NNE 3.5 mph - N/A   Clear
7:53 AM 3.0 °F - -2.0 °F 80% 30.33 in 9.0 mi Calm Calm - N/A   Clear
9:53 AM 14.0 °F 8.2 °F 9.0 °F 80% 30.32 in 10.0 mi NNE 3.5 mph - N/A   Clear
10:53 AM 19.9 °F 13.4 °F 15.1 °F 81% 30.30 in 10.0 mi NE 4.6 mph - N/A   Clear
11:53 AM 28.0 °F 24.2 °F 17.1 °F 63% 30.27 in 7.0 mi North 3.5 mph - N/A   Clear
12:53 PM 33.1 °F - 19.0 °F 56% 30.25 in 8.0 mi Calm Calm - N/A   Clear
1:53 PM 34.0 °F 31.0 °F 21.0 °F 59% 30.25 in 8.0 mi SW 3.5 mph - N/A   Clear
2:53 PM 39.9 °F 37.8 °F 19.9 °F 45% 30.26 in 10.0 mi SW 3.5 mph - N/A   Clear
3:53 PM 35.1 °F 32.2 °F 19.0 °F 52% 30.28 in 10.0 mi Variable 3.5 mph - N/A   Clear
4:53 PM 27.0 °F - 19.0 °F 72% 30.31 in 10.0 mi Calm Calm - N/A   Clear
5:53 PM 25.0 °F 20.7 °F 18.0 °F 75% 30.34 in 10.0 mi South 3.5 mph - N/A   Clear
6:53 PM 21.9 °F - 17.1 °F 82% 30.36 in 10.0 mi Calm Calm - N/A   Clear
7:53 PM 21.0 °F - 16.0 °F 81% 30.38 in 10.0 mi Calm Calm - N/A   Clear
8:53 PM 18.0 °F 12.7 °F 12.9 °F 81% 30.38 in 10.0 mi NE 3.5 mph - N/A   Clear
9:53 PM 17.1 °F - 14.0 °F 88% 30.39 in 9.0 mi Calm Calm - N/A   Clear
10:53 PM 14.0 °F - 10.0 °F 84% 30.40 in 8.0 mi Calm Calm - N/A   Clear